Regional Weather Roundup
Issued by NWS

Home | Current Version | Previous Version | Text Only | Print | Product List | Glossary Off
Versions: 1 2 3 4 5 6 7 8 9 10 11 12 13 14 15 16 17 18 19 20 21 22 23 24 25 26 27 28 29 30 31 32 33 34 35 36 37 38 39 40 41 42 43 44 45 46 47 48 49 50

000
ASUS43 KMKX 240759
RWRWI

WISCONSIN REGIONAL WEATHER ROUNDUP
NATIONAL WEATHER SERVICE MILWAUKEE/SULLIVAN WI
200 AM CST SAT FEB 24 2018

NOTE: "FAIR" INDICATES FEW OR NO CLOUDS BELOW 12,000 FEET WITH NO
SIGNIFICANT WEATHER AND/OR OBSTRUCTIONS TO VISIBILITY.

WIZ001-002-006>008-014>016-023>028-240900-
NORTHWEST WISCONSIN

CITY           SKY/WX    TMP DP  RH WIND       PRES   REMARKS
SUPERIOR ARPT  FAIR      19  11  70 W6        30.25R WCI  11
ASHLAND        FAIR      20  17  88 SW8       30.23S WCI  10
HAYWARD        FOG        6   2  83 CALM      30.22F VSB 1/4
SIREN          FOG        7   4  88 CALM      30.25F VSB 3/4
CUMBERLAND     FOG        5   1  85 CALM      30.23F VSB<1/4
RICE LAKE      FOG       -1  -5  83 CALM      30.25F VSB 1/4
CHETEK         FAIR       6   3  89 CALM      30.24S
LADYSMITH      FOG        7   3  86 CALM      30.24F VSB<1/4
EAU CLAIRE     FAIR       9   7  92 CALM      30.25R FOG
MENOMONIE      FOG        4   0  83 SE5       30.26R VSB 3/4 WCI  -6
NEW RICHMOND   HAZE      -1  -6  80 CALM      30.25F VSB<1/4
OSCEOLA        FOG        4   1  85 CALM      30.28F VSB 1/4
$$

WIZ003>005-009-010-017-018-240900-
NORTH CENTRAL WISCONSIN

CITY           SKY/WX    TMP DP  RH WIND       PRES   REMARKS
MANITOWISH WTR CLOUDY    17  17 100 CALM      30.18S
ARBOR VITAE    FOG       17  15  92 CALM      30.19F VSB 1/4
WOODRUFF       FOG       17  15  92 CALM      30.19F VSB 1/4
RHINELANDER    FOG       13  13 100 W3        30.19F VSB 3/4
EAGLE RIVER    FAIR      18  18  97 CALM      30.18S FOG
LAND O LAKES   CLOUDY    23  21  92 CALM      30.20S
PHILLIPS       FOG        5   3  92 CALM      30.20F VSB<1/4
TOMAHAWK       FAIR       4   1  87 CALM      30.21F
MEDFORD        FOG        8   5  88 CALM      30.20S VSB<1/4
MERRILL        FOG        7   5  89 CALM      30.22F VSB 1/4
$$

WIZ029-030-035-036-043>047-240900-
CENTRAL WISCONSIN

CITY           SKY/WX    TMP DP  RH WIND       PRES   REMARKS
WAUSAU         FAIR      19  17  92 CALM      30.21S FOG
MOSINEE        FAIR      19  19 100 CALM      30.24R FOG
MARSHFIELD     MOCLDY    15  13  91 SW5       30.23R FOG     WCI   8
STEVENS POINT  MOCLDY    20  20 100 S3        30.27R FOG
WAUPACA        FAIR      26  22  84 CALM      30.28R
WAUTOMA        FAIR      23  20  88 CALM      30.28F
WISC RAPIDS    FAIR      20  16  84 CALM      30.27S FOG
CAMP DOUGLAS   FAIR      19  19  97 CALM      30.27F FOG
$$

WIZ011>013-019>022-031-037>040-048>050-240900-
NORTHEAST WISCONSIN

CITY           SKY/WX    TMP DP  RH WIND       PRES   REMARKS
ANTIGO         FAIR      18  17  98 NW3       30.20F FOG
SHAWANO        CLOUDY    31  24  75 SW3       30.26S
OCONTO         CLOUDY    31  22  70 NW3       30.27R
STURGEON BAY   CLOUDY    31  24  75 NW5       30.27R WCI  26
GREEN BAY      CLOUDY    31  22  69 N3        30.27S
MANITOWOC      CLOUDY    31  24  75 CALM      30.28S
APPLETON       FAIR      28  19  69 CALM      30.25S
CLINTONVILLE   CLOUDY    28  22  80 CALM      30.26S
OSHKOSH        CLOUDY    29  22  75 N6        30.27S WCI  23
$$

WIZ032>034-041-042-053>061-240900-
SOUTHWEST WISCONSIN

CITY           SKY/WX    TMP DP  RH WIND       PRES   REMARKS
LA CROSSE      FAIR      23  19  85 CALM      30.29  FOG
SPARTA         FAIR      19  18  98 CALM      30.29F FOG
VIROQUA        FAIR      22  22 100 CALM      30.25F
BOSCOBEL       FAIR      26  21  81 CALM      30.30S
PRAIRIE DU CHI MOCLDY    25  20  82 CALM      30.30S
PLATTEVILLE    FAIR      25  25 100 N9        30.25F WCI  15
$$

WIZ056-057-062-063-064-067-068-240900-
SOUTH CENTRAL WISCONSIN

CITY           SKY/WX    TMP DP  RH WIND       PRES   REMARKS
REEDSBURG      CLOUDY    26  23  89 E3        30.29R
BARABOO/DELLS  CLOUDY    27  22  82 NE3       30.27S
LONE ROCK      NOT AVBL
MINERAL POINT  CLOUDY    28  28 100 NE6       30.26R WCI  22
MADISON        CLOUDY    28  23  81 NE8       30.28S WCI  20
MIDDLETON      CLOUDY    29  25  82 NE6       30.28S WCI  23
WATERTOWN      CLOUDY    29  26  86 NE8       30.27S WCI  21
MONROE         FAIR      28  27  93 N7        30.24F WCI  21
JANESVILLE     FAIR      32  30  93 N5        30.26S WCI  27
$$

WIZ051-052-058>065-066-070>072-240900-
SOUTHEAST WISCONSIN

CITY           SKY/WX    TMP DP  RH WIND       PRES   REMARKS
MILWAUKEE      FAIR      30  24  78 N5        30.26F WCI  25
WAUKESHA       MOCLDY    27  23  86 N3        30.27F
MILWAUKEE/TIMM MOCLDY    30  23  74 CALM      30.28F
RACINE         FAIR      30  26  85 N8        30.27F WCI  22
BURLINGTON     FAIR      29  25  87 N6        30.26F WCI  23
KENOSHA        FAIR      31  26  82 N7        30.24F WCI  24
FOND DU LAC    CLOUDY    30  21  69 NE7       30.28S WCI  23
SHEBOYGAN      CLOUDY    31  25  78 CALM      30.27F
WEST BEND      CLOUDY    32  27  80 N3        30.27F
JUNEAU         CLOUDY    29  23  79 N3        30.28F
$$

LSZ147-162-240900-
LAKE SUPERIOR

STATION/POSITION TIME  TEMP    WIND        PRES    WAVE
                       AIR SEA DIR/SP/G            HT/PER
                 (UTC) (F)     (DEG/KT/KT) (MB)    (FT/S)
DEVILS ISLAND    0700   27     260/ 12/ 13 1024.2R
SAXON HARBOR     0730   23     200/  4/  6 1023.0S
$$

LMZ867-665-643>646-240900-
LAKE MICHIGAN

STATION/POSITION TIME  TEMP    WIND        PRES    WAVE
                       AIR SEA DIR/SP/G            HT/PER
                 (UTC) (F)     (DEG/KT/KT) (MB)    (FT/S)
NORTHPORT PIER   0740   32                 1024.0S
KEWAUNEE LAKESHO 0730   31     310/  1/  1 1024.2S
SHEBOYGAN LAKESH 0700   32     310/  4/  5 1026.1R
PORT WASHINGTON  0730   32      10/  4/  6 1026.4F
KENOSHA   LAKESH 0700   33     360/  4/  5 1024.7
$$

TC  - TEMPERATURE IN CELSIUS
VSB - VISIBILITY IN STATUTE MILES
WCI - WIND CHILL INDEX
HX  - HEAT INDEX





USA.gov is the U.S. government's official web portal to all federal, state and local government web resources and services.